Location: Glencliff
(36.1226°N, 86.7183°W)
Time: 12:24:34
(UTC+00:00)

CZ-2D R/B - Pass Details

Date: 25 August 2019
Orbit: 791 x 846 km, 98.6° (Epoch: 22 October)

Event Time Altitude Azimuth Distance (km) Brightness Sun altitude
Rises 07:02:32 0° 19° (NNE) 3,390 6.2 -40.0°
Reaches altitude 10° 07:05:00 10° 24° (NNE) 2,445 5.3 -39.8°
Enters shadow 07:07:11 24° 35° (NE) 1,664 4.2 -39.6°
